Location: Bartshausen
(51.8454°N, 9.8167°E)
Time: 06:07:24
(UTC+00:00)

Cosmos 2219 Rocket - Pass Details

Date: 08 November 2025
Orbit: 825 x 847 km, 71.0° (Epoch: 11 December)

Event Time Altitude Azimuth Distance (km) Brightness Sun altitude
Exits shadow 04:37:00 28° 274° (W) 1,522 2.9 -17.2°
Maximum altitude 04:38:59 37° 314° (NW) 1,297 2.8 -16.9°
Drops below altitude 10° 04:44:15 10° 21° (NNE) 2,480 4.8 -16.1°
Sets 04:46:55 0° 30° (NNE) 3,420 5.7 -15.7°
